[[{"header":{"parameterUnit":"m.s-1","parameterCategory":1,"la1":30.2991,"la2":30.254,"lo1":-89.0895,"lo2":-89.0444,"dy":0.0017,"dx":0.0017,"nx":28,"ny":28,"refTime":"2024-08-19T03:00:00:Z","depth":0,"parameterNumber":2,"parameterNumberName":"U-component_of_WINDS"},"data":[0,0,0,0,0,0,0,0,0,0,0,0,0,0,0,0,0,0,0,0,0,0,0,0,0,0,0,0,0,0,0,0,0,0,0,0,0,0,0,0,0,0,0,0,0,0,0,0,0,0,0,0,0,0,0,0,0,0,-2.1609,-2.1608,0,-2.1581,-2.1581,-2.1581,-2.1519,-2.1518,-2.1517,-2.1516,-2.1489,-2.149,-2.149,0,0,0,0,0,0,0,0,0,0,0,0,0,-2.1609,-2.1609,-2.1609,-2.1608,-2.1608,-2.1582,-2.1581,-2.1581,-2.152,-2.1518,-2.1517,-2.1515,-2.1489,-2.149,-2.149,0,0,0,0,0,0,0,0,0,0,0,0,0,-2.1598,-2.161,-2.1609,-2.1574,-2.1571,-2.1582,-2.1581,-2.1581,-2.152,-2.1518,-2.1516,-2.1514,-2.1489,-2.149,-2.149,-2.1533,0,0,-2.1493,-2.1493,0,0,0,0,0,0,0,0,-2.1599,-2.1598,-2.158,-2.1577,-2.1573,-2.1552,-2.1572,-2.1565,-2.1521,-2.1539,-2.1516,-2.1514,-2.1512,-2.1511,-2.151,-2.1532,-2.1531,-2.1493,-2.1493,-2.1493,-2.1494,0,0,0,0,0,0,0,-2.16,-2.1599,-2.1598,-2.1579,-2.1575,-2.1561,-2.1557,-2.157,-2.1537,-2.1538,-2.1533,-2.1531,-2.151,-2.1509,-2.1509,-2.153,-2.1493,-2.1493,-2.1494,-2.1494,-2.1587,-2.1589,0,0,0,0,0,0,-2.1605,-2.16,-2.1599,-2.1597,-2.1581,-2.1562,-2.1558,-2.1561,-2.1536,-2.1531,-2.1532,-2.1528,-2.1509,-2.1508,-2.1507,-2.1557,-2.1493,-2.1494,-2.1495,-2.1585,-2.1587,-2.159,0,0,0,0,0,0,-2.1606,-2.1606,-2.16,-2.1597,-2.1595,-2.1564,-2.1567,-2.1561,-2.156,-2.1532,-2.1526,-2.1538,-2.1507,-2.1506,-2.1527,-2.1555,-2.1494,-2.1495,-2.1583,-2.1586,-2.1588,-2.1655,0,0,0,0,0,0,-2.1606,-2.1606,-2.1622,-2.1598,-2.1596,-2.162,-2.1569,-2.1562,-2.1562,-2.1556,-2.1536,-2.1531,-2.1506,-2.1527,-2.1528,-2.1555,-2.1496,-2.158,-2.1584,-2.1587,-2.165,-2.166,-2.1668,0,0,0,0,0,-2.1606,-2.1641,-2.1623,-2.1623,-2.1614,-2.1622,-2.162,-2.159,-2.1564,-2.158,-2.1562,-2.1531,-2.1551,-2.1529,-2.153,-2.1558,-2.1578,-2.1583,-2.1587,-2.1646,-2.1658,-2.1668,0,0,0,0,0,0,-2.1669,-2.1638,-2.1617,-2.1645,-2.1637,-2.1611,-2.163,-2.1604,-2.1602,-2.1597,-2.156,-2.1556,-2.1582,-2.1572,-2.1548,-2.1598,-2.156,-2.1565,-2.1604,-2.1615,-2.1624,-2.1627,-2.1496,0,0,0,0,0,-2.1687,-2.1694,-2.1666,-2.1695,-2.1691,-2.1662,-2.1663,-2.1641,-2.1631,-2.1627,-2.161,-2.1602,-2.1606,-2.161,-2.1612,-2.1648,-2.1643,-2.1667,-2.1676,-2.1684,-2.1689,-2.1709,-2.1719,-2.1605,-2.1605,-2.1604,0,0,-2.1722,-2.1706,-2.1713,-2.1707,-2.1697,-2.1707,-2.1659,-2.1671,-2.1678,-2.1629,-2.1648,-2.1635,-2.1623,-2.1652,-2.1664,-2.1644,-2.172,-2.169,-2.1696,-2.1697,-2.1714,-2.1725,-2.1735,-2.1608,-2.1607,-2.1607,0,0,-2.1793,-2.1781,-2.1804,-2.1795,-2.1781,-2.1761,-2.1767,-2.1745,-2.1735,-2.1754,-2.1717,-2.1725,-2.1733,-2.1727,-2.1724,-2.1793,-2.1766,-2.1795,-2.1842,-2.1862,-2.1871,-2.1879,-2.1905,-2.1914,-2.18,-2.18,-2.18,0,-2.184,-2.1852,-2.1819,-2.1833,-2.1832,-2.1787,-2.1811,-2.1804,-2.1792,-2.1793,-2.177,-2.178,-2.1769,-2.1796,-2.1813,-2.1812,-2.1818,-2.1797,-2.1872,-2.188,-2.1887,-2.1911,-2.1921,-2.1804,-2.1803,-2.1803,-2.1803,0,-2.1911,-2.192,-2.194,-2.193,-2.1931,-2.195,-2.192,-2.1925,-2.1902,-2.1885,-2.1905,-2.189,-2.1889,-2.1893,-2.1872,-2.1918,-2.1906,-2.1879,-2.184,-2.1902,-2.1924,-2.1933,-2.1809,-2.1808,-2.1807,-2.1806,0,0,-2.2021,-2.1992,-2.2,-2.1995,-2.1977,-2.1984,-2.2001,-2.2,-2.2006,-2.1999,-2.2013,-2.2021,-2.1996,-2.1993,-2.197,-2.1987,-2.2044,-2.1957,-2.1957,-2.1975,-2.2096,-2.2118,-2.213,-2.2025,-2.2027,-2.2028,-2.2098,0,-2.2088,-2.2116,-2.2087,-2.2121,-2.213,-2.2088,-2.2103,-2.2094,-2.2078,-2.2084,-2.2066,-2.2073,-2.2038,-2.2037,-2.2051,-2.2034,-2.2068,-2.2029,-2.204,-2.2041,-2.2046,-2.2141,-2.2164,-2.223,-2.2106,-2.2107,-2.2109,0,-2.2171,-2.2168,-2.2203,-2.2183,-2.2186,-2.22,-2.2197,-2.2203,-2.2192,-2.218,-2.2177,-2.215,-2.2166,-2.2127,-2.215,-2.2124,-2.2127,-2.2119,-2.2121,-2.2122,-2.208,-2.2146,-2.225,-2.2261,-2.2122,-2.2121,-2.212,0,-2.225,-2.2255,-2.2276,-2.2273,-2.225,-2.2262,-2.2253,-2.224,-2.2241,-2.2239,-2.224,-2.2239,-2.2239,-2.224,-2.2214,-2.2187,-2.224,-2.2199,-2.2232,-2.2233,-2.2246,-2.2246,-2.2354,-2.2245,-2.2245,-2.2245,-2.2245,0,-2.2329,-2.2353,-2.2312,-2.2325,-2.2351,-2.2317,-2.2343,-2.233,-2.2319,-2.233,-2.2293,-2.2304,-2.2267,-2.2275,-2.2254,-2.2277,-2.2277,-2.2268,-2.2263,-2.2273,-2.2274,-2.2275,-2.227,-2.2247,-2.2247,-2.2246,-2.2246,0,-2.2422,-2.2395,-2.2417,-2.2393,-2.2388,-2.2408,-2.2388,-2.24,-2.2382,-2.2397,-2.2398,-2.237,-2.2377,-2.235,-2.2352,-2.2339,-2.2373,-2.2359,-2.2377,-2.2373,-2.2408,-2.2406,-2.2522,-2.2536,-2.2417,-2.2418,-2.2419,0,-2.2475,-2.2492,-2.2471,-2.2475,-2.2468,-2.2476,-2.2477,-2.2444,-2.2447,-2.2437,-2.2451,-2.2454,-2.2456,-2.247,-2.245,-2.2452,-2.2439,-2.2479,-2.2439,-2.2449,-2.2441,-2.2441,-2.2444,-2.2488,-2.249,-2.2491,-2.2492,0,-2.2573,-2.2559,-2.2562,-2.2561,-2.2563,-2.2561,-2.2556,-2.2562,-2.2527,-2.2532,-2.2539,-2.254,-2.2543,-2.2548,-2.2546,-2.2537,-2.251,-2.2504,-2.2512,-2.2523,-2.2534,-2.253,-2.2402,-2.2502,-2.2501,-2.25,-2.25,-2.2499,-2.2648,-2.2662,-2.2649,-2.2654,-2.2647,-2.2644,-2.2654,-2.2637,-2.2642,-2.2642,-2.2622,-2.2633,-2.2622,-2.2617,-2.2611,-2.262,-2.2601,-2.2612,-2.2615,-2.2619,-2.2626,-2.2531,-2.2619,-2.2619,-2.2618,-2.2618,-2.2618,0,-2.2745,-2.2735,-2.274,-2.2734,-2.2739,-2.2711,-2.2704,-2.271,-2.272,-2.2712,-2.2714,-2.2723,-2.2728,-2.2708,-2.271,-2.2721,-2.2709,-2.2723,-2.2723,-2.2722,-2.2641,-2.2635,-2.2733,-2.2733,-2.2733,-2.2733,-2.2733,-2.2733,-2.2796,-2.2819,-2.2803,-2.2822,-2.2811,-2.2822,-2.2821,-2.2818,-2.2811,-2.2822,-2.2826,-2.2813,-2.2801,-2.2802,-2.2806,-2.28,-2.2803,-2.2822,-2.2813,-2.2738,-2.2727,-2.2716,-2.271,-2.2823,-2.2823,-2.2892,-2.2893,-2.2893]},{"header":{"parameterUnit":"m.s-1","parameterCategory":1,"la1":30.2991,"la2":30.254,"lo1":-89.0895,"lo2":-89.0444,"dy":0.0017,"dx":0.0017,"nx":28,"ny":28,"refTime":"2024-08-19T03:00:00:Z","depth":0,"parameterNumber":3,"parameterNumberName":"V-component_of_WINDS"},"data":[0,0,0,0,0,0,0,0,0,0,0,0,0,0,0,0,0,0,0,0,0,0,0,0,0,0,0,0,0,0,0,0,0,0,0,0,0,0,0,0,0,0,0,0,0,0,0,0,0,0,0,0,0,0,0,0,0,0,-2.1749,-2.1749,0,-2.1783,-2.1783,-2.1783,-2.1767,-2.1766,-2.1765,-2.1764,-2.1796,-2.1798,-2.18,0,0,0,0,0,0,0,0,0,0,0,0,0,-2.1666,-2.1668,-2.1749,-2.1749,-2.1749,-2.1783,-2.1783,-2.1784,-2.1767,-2.1766,-2.1765,-2.1764,-2.1796,-2.1798,-2.18,0,0,0,0,0,0,0,0,0,0,0,0,0,-2.1701,-2.1668,-2.1749,-2.1745,-2.1745,-2.1783,-2.1783,-2.1784,-2.1767,-2.1766,-2.1764,-2.1763,-2.1795,-2.1798,-2.18,-2.1842,0,0,-2.1808,-2.1809,0,0,0,0,0,0,0,0,-2.1699,-2.1704,-2.1745,-2.1745,-2.1746,-2.1769,-2.1766,-2.1803,-2.1767,-2.1759,-2.1764,-2.1763,-2.1788,-2.1791,-2.18,-2.1844,-2.1845,-2.1808,-2.181,-2.1811,-2.1811,0,0,0,0,0,0,0,-2.1697,-2.1703,-2.1762,-2.1746,-2.1746,-2.1741,-2.1745,-2.1773,-2.178,-2.1759,-2.1758,-2.1763,-2.1788,-2.1798,-2.1801,-2.1845,-2.1808,-2.181,-2.1812,-2.1813,-2.1925,-2.1926,0,0,0,0,0,0,-2.1695,-2.1701,-2.1761,-2.1763,-2.1719,-2.1744,-2.1748,-2.1763,-2.178,-2.1781,-2.1764,-2.1762,-2.1794,-2.1798,-2.1802,-2.1853,-2.1811,-2.1813,-2.1815,-2.1923,-2.1925,-2.1927,0,0,0,0,0,0,-2.1693,-2.1701,-2.176,-2.1732,-2.1739,-2.1746,-2.1764,-2.1764,-2.1774,-2.1783,-2.1784,-2.1773,-2.1794,-2.1799,-2.1833,-2.1854,-2.1814,-2.1817,-2.1922,-2.1924,-2.1926,-2.1954,0,0,0,0,0,0,-2.1691,-2.17,-2.1717,-2.1732,-2.174,-2.179,-2.1765,-2.1766,-2.1779,-2.1777,-2.1792,-2.1793,-2.1793,-2.1829,-2.1835,-2.1857,-2.1818,-2.192,-2.1923,-2.1925,-2.1952,-2.1957,-2.1962,0,0,0,0,0,-2.1688,-2.1723,-2.1718,-2.1725,-2.1762,-2.1792,-2.1796,-2.1796,-2.1781,-2.1797,-2.1803,-2.1793,-2.185,-2.1832,-2.1839,-2.1862,-2.1918,-2.1922,-2.1925,-2.1949,-2.1956,-2.1962,0,0,0,0,0,0,-2.1709,-2.1725,-2.1719,-2.176,-2.1775,-2.1789,-2.181,-2.1803,-2.1821,-2.1818,-2.1816,-2.182,-2.1855,-2.1861,-2.1841,-2.1903,-2.1882,-2.1887,-2.1898,-2.1905,-2.191,-2.1908,-2.1821,0,0,0,0,0,-2.1718,-2.1742,-2.1754,-2.1789,-2.1797,-2.1802,-2.1815,-2.1813,-2.1828,-2.1834,-2.1842,-2.1856,-2.1877,-2.1891,-2.1911,-2.1952,-2.1955,-2.1971,-2.1976,-2.198,-2.1985,-2.2007,-2.2014,-2.1937,-2.1937,-2.1937,0,0,-2.1738,-2.1749,-2.1764,-2.1794,-2.1805,-2.1829,-2.1807,-2.1834,-2.1851,-2.1837,-2.1871,-2.1877,-2.1892,-2.193,-2.1947,-2.1937,-2.2007,-2.1984,-2.1988,-2.199,-2.2011,-2.2019,-2.2025,-2.194,-2.1939,-2.1939,0,0,-2.1786,-2.1797,-2.1828,-2.1839,-2.1857,-2.186,-2.1867,-2.1882,-2.1886,-2.1919,-2.191,-2.193,-2.1966,-2.1978,-2.1988,-2.204,-2.2032,-2.2047,-2.2075,-2.2097,-2.2103,-2.2108,-2.2127,-2.2134,-2.2051,-2.2051,-2.2051,0,-2.1808,-2.1845,-2.1844,-2.1871,-2.1884,-2.1874,-2.1904,-2.1915,-2.1938,-2.1947,-2.1935,-2.198,-2.199,-2.203,-2.2043,-2.2052,-2.206,-2.2046,-2.2102,-2.2107,-2.2112,-2.2131,-2.2138,-2.2053,-2.2053,-2.2052,-2.2052,0,-2.1871,-2.1897,-2.1919,-2.1943,-2.1958,-2.1987,-2.1989,-2.2005,-2.2001,-2.2006,-2.2039,-2.205,-2.2072,-2.2081,-2.2078,-2.2121,-2.2115,-2.2102,-2.2081,-2.2122,-2.2139,-2.2146,-2.2055,-2.2055,-2.2054,-2.2054,0,0,-2.1934,-2.1957,-2.1965,-2.1976,-2.1994,-2.2013,-2.2041,-2.2063,-2.2077,-2.2092,-2.2116,-2.2146,-2.2135,-2.2147,-2.2145,-2.2164,-2.2205,-2.2149,-2.215,-2.216,-2.2254,-2.2264,-2.2272,-2.2199,-2.2201,-2.2202,-2.2253,0,-2.1984,-2.2035,-2.2034,-2.2081,-2.2104,-2.2094,-2.2118,-2.2131,-2.2136,-2.2156,-2.216,-2.2182,-2.2166,-2.2173,-2.2191,-2.2197,-2.2224,-2.2193,-2.2221,-2.2222,-2.2219,-2.2281,-2.2292,-2.234,-2.226,-2.2261,-2.2262,0,-2.205,-2.2069,-2.2118,-2.2133,-2.2143,-2.2165,-2.2185,-2.2204,-2.2219,-2.2221,-2.2234,-2.2229,-2.2256,-2.2233,-2.2271,-2.225,-2.2261,-2.2265,-2.2267,-2.227,-2.2245,-2.2287,-2.2355,-2.2363,-2.2272,-2.2271,-2.2271,0,-2.2092,-2.2129,-2.2164,-2.2173,-2.2191,-2.2207,-2.2215,-2.2228,-2.2242,-2.2259,-2.2268,-2.2288,-2.2299,-2.2314,-2.2314,-2.2297,-2.2352,-2.2329,-2.2354,-2.2355,-2.2367,-2.2367,-2.2439,-2.2373,-2.2373,-2.2373,-2.2373,0,-2.2149,-2.2179,-2.2183,-2.2204,-2.2238,-2.2237,-2.227,-2.2276,-2.2288,-2.2309,-2.2301,-2.2321,-2.2319,-2.2339,-2.2339,-2.2371,-2.2376,-2.2378,-2.2377,-2.2379,-2.2379,-2.2387,-2.2384,-2.2375,-2.2374,-2.2374,-2.2374,0,-2.2202,-2.2206,-2.2243,-2.2257,-2.2261,-2.2285,-2.2297,-2.2317,-2.232,-2.2347,-2.2354,-2.2359,-2.2382,-2.2383,-2.241,-2.2409,-2.2448,-2.2444,-2.2444,-2.2443,-2.2469,-2.2467,-2.255,-2.2561,-2.2487,-2.2487,-2.2488,0,-2.2239,-2.2262,-2.2279,-2.2293,-2.2303,-2.2326,-2.234,-2.2339,-2.2354,-2.2372,-2.2389,-2.2412,-2.243,-2.2468,-2.2473,-2.2493,-2.249,-2.2517,-2.2493,-2.2494,-2.2491,-2.249,-2.2493,-2.2523,-2.2523,-2.2524,-2.2525,0,-2.2303,-2.2304,-2.2325,-2.2347,-2.2364,-2.2381,-2.2397,-2.2408,-2.2409,-2.2426,-2.245,-2.2465,-2.2492,-2.2515,-2.2534,-2.2541,-2.2533,-2.2532,-2.2539,-2.2542,-2.2541,-2.2543,-2.2458,-2.2531,-2.253,-2.253,-2.2529,-2.2529,-2.235,-2.237,-2.2386,-2.2409,-2.2421,-2.2436,-2.2456,-2.2462,-2.2482,-2.2505,-2.2503,-2.253,-2.2543,-2.2569,-2.2577,-2.2598,-2.2588,-2.2598,-2.2601,-2.2604,-2.2607,-2.2537,-2.2601,-2.2601,-2.2601,-2.2601,-2.2601,0,-2.2415,-2.2424,-2.2446,-2.2469,-2.2487,-2.2478,-2.2495,-2.2511,-2.2535,-2.2549,-2.2567,-2.2595,-2.2616,-2.2624,-2.2644,-2.266,-2.2656,-2.2665,-2.2664,-2.2666,-2.2614,-2.2606,-2.2667,-2.2667,-2.2667,-2.2667,-2.2667,-2.2667,-2.2451,-2.2486,-2.2488,-2.2528,-2.2536,-2.2564,-2.2574,-2.2588,-2.2598,-2.263,-2.2649,-2.2653,-2.2664,-2.2686,-2.2705,-2.2706,-2.2715,-2.2725,-2.2725,-2.2677,-2.267,-2.2664,-2.2656,-2.2727,-2.2727,-2.2776,-2.2777,-2.2777]}]]